Location: Agadir Irigdalene
(31.2522°N, 8.7797°W)
Time: 05:28:41
(UTC+00:00)

Cosmos 2228 Rocket - Pass Details

Date: 01 December 2020
Orbit: 618 x 652 km, 82.5° (Epoch: 25 January)

Event Time Altitude Azimuth Distance (km) Brightness Sun altitude
Rises 18:59:43 0° 193° (SSW) 2,951 6.9 -18.4°
Reaches altitude 10° 19:01:59 10° 196° (SSW) 2,041 6.1 -18.9°
Maximum altitude 19:06:28 62° 277° (W) 727 3.6 -19.8°
Drops below altitude 10° 19:10:57 10° 358° (N) 2,036 5.6 -20.7°
Enters shadow 19:12:06 - 1° (N) 2,491 6.0 -21.0°
